Skip Page Navigation
NASA JPL Caltech
NASA Logo - Jet Propulsion Laboratory + View the NASA Portal
+ Center for Near-Earth Object Studies
JPL Home Earth Solar System Stars & Galaxies Technology
JPL Solar System Dynamics
BODIES ORBITS EPHEMERIDES TOOLS PHYSICAL DATA DISCOVERY FAQ SITE MAP
IMPORTANT: The SSD Announcement email list is now available. Major changes are coming in the near future, including possible hostname and/or URL changes. To be notified of such changes, subscribe to this email list.

Please visit this page for more details.


JPL Small-Body Database Browser
Search: [ help ]  
34311 (2000 QE188)
Classification: Main-belt Asteroid          SPK-ID: 2034311
Ephemeris | Orbit Diagram | Orbital Elements | Mission Design | Physical Parameters | Discovery Circumstances | Close-Approach Data ]

[ show orbit diagram ]
Orbital Elements at Epoch 2458600.5 (2019-Apr-27.0) TDB
Reference: JPL 23 (heliocentric ecliptic J2000)
 Element Value Uncertainty (1-sigma)   Units 
e .1007053188897395 4.1841e-08  
a 3.052598082034455 2.1044e-08 au
q 2.745185218740968 1.2975e-07 au
i 12.79663747823666 4.8467e-06 deg
node 121.2749311716653 2.4598e-05 deg
peri 338.7866973017245 4.0166e-05 deg
M 65.85887733227065 2.9549e-05 deg
tp 2458244.118878788286
(2018-May-05.61887879)
0.0001602 TDB
period 1948.062415168924
5.33
2.0145e-05
5.515e-08
d
yr
n .1847990070527505 1.911e-09 deg/d
Q 3.360010945327942 2.3164e-08 au
  Orbit Determination Parameters
   # obs. used (total)      897  
   data-arc span      9943 days (27.22 yr)  
   first obs. used      1992-02-04  
   last obs. used      2019-04-26  
   planetary ephem.      DE431  
   SB-pert. ephem.      SB431-N16  
   condition code      0  
   norm. resid. RMS      .59612  
   source      ORB  
   producer      Otto Matic  
   solution date      2019-Jul-13 01:41:23  

Additional Information
 Earth MOID = 1.76609 au 
 Jupiter MOID = 1.7743 au 
 T_jup = 3.191 
[ hide covariance matrix ]
Orbital Elements at Epoch 2456651.5 (2013-Dec-25.0) TDB
Reference: JPL 23 (heliocentric ecliptic J2000)
 Element Value Uncertainty (1-sigma)   Units 
e .1021546054737637 4.182e-08  
q 2.740113286519425 1.2985e-07 au
tp 2456294.939479939415
(2013-Jan-02.43947994)
0.00016061 TDB
node 121.293508292373 2.4602e-05 deg
peri 338.6947145382215 3.9799e-05 deg
i 12.79727447253671 4.847e-06 deg
  Orbit Determination Parameters
   # obs. used (total)      897  
   data-arc span      9943 days (27.22 yr)  
   first obs. used      1992-02-04  
   last obs. used      2019-04-26  
   planetary ephem.      DE431  
   SB-pert. ephem.      SB431-N16  
   condition code      0  
   norm. resid. RMS      .59612  
   source      ORB  
   producer      Otto Matic  
   solution date      2019-Jul-13 01:41:23  

Additional Information
 Jupiter MOID = 1.7743 au 
 T_jup = 3.191 
Orbit Covariance (6×6)
  e q tp node peri i
e 1.748917528310916E-15 -5.372911131965876E-15 -3.626010064746669E-13 -1.078083358359605E-14 -5.240387343899663E-14 -3.507631658670925E-15
q -5.372911131965876E-15 1.686077004744786E-14 4.662812445471585E-13 3.620068487327069E-14 4.612864959725154E-14 1.093074313108624E-14
tp -3.626010064746669E-13 4.662812445471585E-13 2.579577680628045E-8 3.791672381262348E-11 5.068308968909567E-9 6.33222112741695E-12
node -1.078083358359605E-14 3.620068487327069E-14 3.791672381262348E-11 6.052678519603126E-10 -5.817350100673134E-10 5.444551052631188E-12
peri -5.240387343899663E-14 4.612864959725154E-14 5.068308968909567E-9 -5.817350100673134E-10 1.583965379243759E-9 -4.090378582980814E-12
i -3.507631658670925E-15 1.093074313108624E-14 6.33222112741695E-12 5.444551052631188E-12 -4.090378582980814E-12 2.349341158052564E-11

Ephemeris | Orbit Diagram | Orbital Elements | Mission Design | Physical Parameters | Discovery Circumstances | Close-Approach Data ]

Physical Parameter Table
Parameter Symbol Value Units Sigma Reference Notes
absolute magnitude H 14.2   n/a MPO389907  
diameter diameter 5.273 km 0.426 urn:nasa:pds:neowise_diameters_albedos::2.0[mainbelt] (http://adsabs.harvard.edu/abs/2011ApJ...741...68M)  
geometric albedo albedo 0.160   0.031 urn:nasa:pds:neowise_diameters_albedos::2.0[mainbelt] (http://adsabs.harvard.edu/abs/2011ApJ...741...68M)  

34311 (2000 QE188)          Discovered 2000-Aug-26 by LINEAR at Socorro
Reference: 20020128/Numbers.arcLast Updated: 2004-04-19

[ show close-approach data ]
Alternate Designations
 2000 QE188 = 1992 CR = 1998 GO7 
Ephemeris | Orbit Diagram | Orbital Elements | Mission Design | Physical Parameters | Discovery Circumstances | Close-Approach Data ]
ABOUT SSD CREDITS/AWARDS PRIVACY/COPYRIGHT GLOSSARY LINKS
FirstGov
(server date/time)  
NASA Home Page
Site Manager:   Ryan S. Park
Webmaster  Alan B. Chamberlin